STARLINK-4790 (53859 NORAD) Tracking and Keplerian Element Data

This shows tracking and keplerian element data for the satellite.

Feedback or suggestion? Click here.




ElementValue
Catalog53859
NameSTARLINK-4790
Epoch Orbit130
Epoch Day324.91667824
Epoch Year2022
RAAN307.6178
Inclination53.2143
Eccentricity0.00038
Argument of Perigee355.9283
Mean Anonmoly231.0889
Mean Motion15.73213596
Decay Rate0.00075254
L11 53859U 22114AT 22324.91667824 .00075254 00000+0 53535-3 0 9992
L22 53859 53.2143 307.6178 0003800 355.9283 231.0889 15.73213596 1305



Live tracking and technical data element details for STARLINK-4790 (NORAD 53859). STARLINK-4790 can be tracked NOW for your location showing map with azimuth and elevation plus other details from your city location.







IsCatalogInMostPopularTable: catalog: 53859, numindb: -1

Insert: records affected: 1


GetName: 53859 STARLINK-4790

Hit Count: inserted at: Thu, 08 Dec 2022 09:08:23 GMT